Wetterdaten: Sonntag, 20.03.2016
Datum Zeit Temp. A. Temp. A. min Temp. A. max Feuchte A. Bod.Feucht 4 Luftdruck Regen Wind Richtung Richtung Sonnenschein ET Solar Taupunkt Windchill Windben Empfang
20.03.2016 00:00 3,6 C 3,6 C 3,6 C 82 % 0 cb 1022,4 hPa 0,0 l/m 4,8 km/h (1 Bft) N-NO 22 0 min 0,025 mm 0 W/m 0,8 C 2,6 C 14,5 km/h (3 Bft) 100,00 %
20.03.2016 00:10 3,6 C 3,6 C 3,6 C 82 % 0 cb 1022,3 hPa 0,0 l/m 4,8 km/h (1 Bft) NO 45 0 min 0,000 mm 0 W/m 0,8 C 2,6 C 14,5 km/h (3 Bft) 82,46 %
20.03.2016 00:20 3,6 C 3,6 C 3,6 C 82 % 0 cb 1022,3 hPa 0,0 l/m 4,8 km/h (1 Bft) NO 45 0 min 0,000 mm 0 W/m 0,8 C 2,6 C 12,9 km/h (3 Bft) 100,00 %
20.03.2016 00:30 3,6 C 3,6 C 3,6 C 82 % 0 cb 1022,2 hPa 0,0 l/m 1,6 km/h (1 Bft) N 360 0 min 0,000 mm 0 W/m 0,8 C 3,6 C 4,8 km/h (1 Bft) 99,56 %
20.03.2016 00:40 3,6 C 3,5 C 3,6 C 81 % 0 cb 1022,3 hPa 0,0 l/m 3,2 km/h (1 Bft) NO 45 0 min 0,000 mm 0 W/m 0,7 C 3,6 C 17,7 km/h (3 Bft) 99,56 %
20.03.2016 00:50 3,5 C 3,5 C 3,6 C 81 % 0 cb 1022,4 hPa 0,0 l/m 4,8 km/h (1 Bft) O-NO 67 0 min 0,000 mm 0 W/m 0,6 C 2,5 C 12,9 km/h (3 Bft) 100,00 %
20.03.2016 01:00 3,5 C 3,5 C 3,6 C 81 % 0 cb 1022,3 hPa 0,0 l/m 4,8 km/h (1 Bft) NO 45 0 min 0,025 mm 0 W/m 0,6 C 2,5 C 14,5 km/h (3 Bft) 100,00 %
20.03.2016 01:10 3,5 C 3,5 C 3,5 C 81 % 0 cb 1022,4 hPa 0,0 l/m 6,4 km/h (2 Bft) N-NO 22 0 min 0,000 mm 0 W/m 0,6 C 1,9 C 14,5 km/h (3 Bft) 100,00 %
20.03.2016 01:20 3,5 C 3,4 C 3,5 C 81 % 0 cb 1022,4 hPa 0,0 l/m 3,2 km/h (1 Bft) N-NO 22 0 min 0,000 mm 0 W/m 0,6 C 3,5 C 9,7 km/h (2 Bft) 100,00 %
20.03.2016 01:30 3,4 C 3,4 C 3,5 C 81 % 0 cb 1022,2 hPa 0,0 l/m 1,6 km/h (1 Bft) N-NO 22 0 min 0,000 mm 0 W/m 0,5 C 3,4 C 6,4 km/h (2 Bft) 100,00 %
20.03.2016 01:40 3,4 C 3,4 C 3,4 C 81 % 0 cb 1022,2 hPa 0,0 l/m 4,8 km/h (1 Bft) N 360 0 min 0,000 mm 0 W/m 0,5 C 2,4 C 9,7 km/h (2 Bft) 100,00 %
20.03.2016 01:50 3,3 C 3,3 C 3,4 C 81 % 0 cb 1022,2 hPa 0,0 l/m 4,8 km/h (1 Bft) N-NO 22 0 min 0,000 mm 0 W/m 0,4 C 2,2 C 12,9 km/h (3 Bft) 99,56 %
20.03.2016 02:00 3,3 C 3,3 C 3,3 C 81 % 0 cb 1022,1 hPa 0,0 l/m 6,4 km/h (2 Bft) N-NO 22 0 min 0,025 mm 0 W/m 0,4 C 1,6 C 16,1 km/h (3 Bft) 100,00 %
20.03.2016 02:10 3,3 C 3,3 C 3,3 C 82 % 0 cb 1022,1 hPa 0,0 l/m 6,4 km/h (2 Bft) NO 45 0 min 0,000 mm 0 W/m 0,5 C 1,6 C 17,7 km/h (3 Bft) 100,00 %
20.03.2016 02:20 3,3 C 3,2 C 3,3 C 82 % 0 cb 1022,1 hPa 0,0 l/m 4,8 km/h (1 Bft) N-NO 22 0 min 0,000 mm 0 W/m 0,5 C 2,2 C 9,7 km/h (2 Bft) 100,00 %
20.03.2016 02:30 3,2 C 3,2 C 3,2 C 82 % 0 cb 1021,9 hPa 0,0 l/m 4,8 km/h (1 Bft) N-NO 22 0 min 0,000 mm 0 W/m 0,4 C 2,1 C 12,9 km/h (3 Bft) 100,00 %
20.03.2016 02:40 3,2 C 3,2 C 3,2 C 83 % 0 cb 1021,9 hPa 0,0 l/m 1,6 km/h (1 Bft) N-NO 22 0 min 0,000 mm 0 W/m 0,6 C 3,2 C 4,8 km/h (1 Bft) 100,00 %
20.03.2016 02:50 3,2 C 3,2 C 3,2 C 83 % 0 cb 1021,8 hPa 0,0 l/m 1,6 km/h (1 Bft) N-NO 22 0 min 0,000 mm 0 W/m 0,6 C 3,2 C 4,8 km/h (1 Bft) 100,00 %
20.03.2016 03:00 3,1 C 3,1 C 3,2 C 83 % 0 cb 1021,8 hPa 0,0 l/m 3,2 km/h (1 Bft) N-NO 22 0 min 0,025 mm 0 W/m 0,5 C 3,1 C 8,0 km/h (2 Bft) 99,12 %
20.03.2016 03:10 3,1 C 3,0 C 3,1 C 82 % 0 cb 1021,7 hPa 0,0 l/m 4,8 km/h (1 Bft) N 360 0 min 0,000 mm 0 W/m 0,3 C 2,0 C 12,9 km/h (3 Bft) 100,00 %
20.03.2016 03:20 2,9 C 2,9 C 3,1 C 83 % 0 cb 1021,7 hPa 0,0 l/m 4,8 km/h (1 Bft) N 360 0 min 0,000 mm 0 W/m 0,3 C 1,8 C 12,9 km/h (3 Bft) 100,00 %
20.03.2016 03:30 2,9 C 2,9 C 2,9 C 82 % 0 cb 1021,6 hPa 0,0 l/m 3,2 km/h (1 Bft) N 360 0 min 0,000 mm 0 W/m 0,1 C 2,9 C 8,0 km/h (2 Bft) 100,00 %
20.03.2016 03:40 2,8 C 2,8 C 2,9 C 82 % 0 cb 1021,5 hPa 0,0 l/m 4,8 km/h (1 Bft) N-NW 337 0 min 0,000 mm 0 W/m 0,0 C 1,7 C 14,5 km/h (3 Bft) 100,00 %
20.03.2016 03:50 2,8 C 2,8 C 2,8 C 82 % 0 cb 1021,4 hPa 0,0 l/m 4,8 km/h (1 Bft) N 360 0 min 0,000 mm 0 W/m 0,0 C 1,7 C 9,7 km/h (2 Bft) 100,00 %
20.03.2016 04:00 2,7 C 2,7 C 2,8 C 82 % 0 cb 1021,4 hPa 0,0 l/m 3,2 km/h (1 Bft) NO 45 0 min 0,025 mm 0 W/m -0,1 C 2,7 C 9,7 km/h (2 Bft) 100,00 %
20.03.2016 04:10 2,7 C 2,7 C 2,8 C 83 % 0 cb 1021,4 hPa 0,0 l/m 1,6 km/h (1 Bft) N-NO 22 0 min 0,000 mm 0 W/m 0,1 C 2,7 C 4,8 km/h (1 Bft) 99,56 %
20.03.2016 04:20 2,7 C 2,7 C 2,7 C 82 % 0 cb 1021,4 hPa 0,0 l/m 3,2 km/h (1 Bft) N-NO 22 0 min 0,000 mm 0 W/m -0,1 C 2,7 C 9,7 km/h (2 Bft) 99,56 %
20.03.2016 04:30 2,6 C 2,6 C 2,7 C 82 % 0 cb 1021,4 hPa 0,0 l/m 4,8 km/h (1 Bft) N 360 0 min 0,000 mm 0 W/m -0,2 C 1,4 C 16,1 km/h (3 Bft) 100,00 %
20.03.2016 04:40 2,6 C 2,6 C 2,6 C 82 % 0 cb 1021,3 hPa 0,0 l/m 4,8 km/h (1 Bft) O-NO 67 0 min 0,000 mm 0 W/m -0,2 C 1,4 C 14,5 km/h (3 Bft) 100,00 %
20.03.2016 04:50 2,5 C 2,5 C 2,6 C 82 % 0 cb 1021,3 hPa 0,0 l/m 1,6 km/h (1 Bft) NO 45 0 min 0,000 mm 0 W/m -0,3 C 2,5 C 6,4 km/h (2 Bft) 100,00 %
20.03.2016 05:00 2,4 C 2,4 C 2,5 C 82 % 0 cb 1021,1 hPa 0,0 l/m 1,6 km/h (1 Bft) N-NO 22 0 min 0,000 mm 0 W/m -0,4 C 2,4 C 6,4 km/h (2 Bft) 100,00 %
20.03.2016 05:10 2,4 C 2,4 C 2,4 C 82 % 0 cb 1021,1 hPa 0,0 l/m 3,2 km/h (1 Bft) N 360 0 min 0,000 mm 0 W/m -0,4 C 2,4 C 9,7 km/h (2 Bft) 100,00 %
20.03.2016 05:20 2,3 C 2,3 C 2,4 C 83 % 0 cb 1021,0 hPa 0,0 l/m 1,6 km/h (1 Bft) N-NO 22 0 min 0,000 mm 0 W/m -0,3 C 2,3 C 8,0 km/h (2 Bft) 100,00 %
20.03.2016 05:30 2,2 C 2,2 C 2,3 C 82 % 0 cb 1021,1 hPa 0,0 l/m 4,8 km/h (1 Bft) N-NW 337 0 min 0,000 mm 0 W/m -0,5 C 1,0 C 12,9 km/h (3 Bft) 100,00 %
20.03.2016 05:40 2,2 C 2,2 C 2,2 C 83 % 0 cb 1021,1 hPa 0,0 l/m 4,8 km/h (1 Bft) N 360 0 min 0,000 mm 0 W/m -0,4 C 1,0 C 11,3 km/h (2 Bft) 100,00 %
20.03.2016 05:50 2,1 C 2,1 C 2,2 C 83 % 0 cb 1021,1 hPa 0,0 l/m 4,8 km/h (1 Bft) N-NO 22 0 min 0,000 mm 0 W/m -0,5 C 0,9 C 11,3 km/h (2 Bft) 100,00 %
20.03.2016 06:00 2,1 C 2,1 C 2,1 C 83 % 0 cb 1021,1 hPa 0,0 l/m 3,2 km/h (1 Bft) N 360 0 min 0,000 mm 0 W/m -0,5 C 2,1 C 9,7 km/h (2 Bft) 100,00 %
20.03.2016 06:10 2,1 C 2,1 C 2,1 C 83 % 0 cb 1021,2 hPa 0,0 l/m 0,0 km/h (0 Bft) NO 45 0 min 0,000 mm 0 W/m -0,5 C 2,1 C 3,2 km/h (1 Bft) 100,00 %
20.03.2016 06:20 2,1 C 2,1 C 2,1 C 83 % 0 cb 1021,2 hPa 0,0 l/m 1,6 km/h (1 Bft) O-NO 67 0 min 0,000 mm 0 W/m -0,5 C 2,1 C 6,4 km/h (2 Bft) 100,00 %
20.03.2016 06:30 2,0 C 2,0 C 2,1 C 82 % 0 cb 1021,3 hPa 0,0 l/m 3,2 km/h (1 Bft) NO 45 0 min 0,000 mm 0 W/m -0,7 C 2,0 C 11,3 km/h (2 Bft) 100,00 %
20.03.2016 06:40 1,9 C 1,9 C 2,0 C 82 % 0 cb 1021,3 hPa 0,0 l/m 3,2 km/h (1 Bft) N-NO 22 0 min 0,000 mm 0 W/m -0,8 C 1,9 C 11,3 km/h (2 Bft) 100,00 %
20.03.2016 06:50 2,0 C 1,9 C 2,0 C 83 % 0 cb 1021,5 hPa 0,0 l/m 1,6 km/h (1 Bft) N 360 0 min 0,000 mm 0 W/m -0,6 C 2,0 C 4,8 km/h (1 Bft) 99,12 %
20.03.2016 07:00 2,0 C 1,9 C 2,0 C 83 % 0 cb 1021,5 hPa 0,0 l/m 0,0 km/h (0 Bft) N 360 0 min 0,000 mm 7 W/m -0,6 C 2,0 C 4,8 km/h (1 Bft) 100,00 %
20.03.2016 07:10 1,9 C 1,9 C 2,0 C 83 % 0 cb 1021,5 hPa 0,0 l/m 1,6 km/h (1 Bft) N 360 0 min 0,000 mm 11 W/m -0,7 C 1,9 C 6,4 km/h (2 Bft) 100,00 %
20.03.2016 07:20 1,9 C 1,9 C 2,0 C 83 % 0 cb 1021,4 hPa 0,0 l/m 3,2 km/h (1 Bft) NO 45 0 min 0,000 mm 14 W/m -0,7 C 1,9 C 9,7 km/h (2 Bft) 100,00 %
20.03.2016 07:30 2,0 C 1,9 C 2,0 C 84 % 0 cb 1021,5 hPa 0,0 l/m 3,2 km/h (1 Bft) N-NO 22 0 min 0,000 mm 18 W/m -0,4 C 2,0 C 8,0 km/h (2 Bft) 100,00 %
20.03.2016 07:40 2,1 C 2,0 C 2,1 C 84 % 0 cb 1021,5 hPa 0,0 l/m 3,2 km/h (1 Bft) N-NO 22 0 min 0,000 mm 21 W/m -0,3 C 2,1 C 6,4 km/h (2 Bft) 100,00 %
20.03.2016 07:50 2,1 C 2,1 C 2,1 C 84 % 0 cb 1021,6 hPa 0,0 l/m 3,2 km/h (1 Bft) N 360 0 min 0,000 mm 26 W/m -0,3 C 2,1 C 9,7 km/h (2 Bft) 100,00 %
20.03.2016 08:00 2,1 C 2,1 C 2,1 C 84 % 0 cb 1021,6 hPa 0,0 l/m 1,6 km/h (1 Bft) N-NO 22 0 min 0,000 mm 30 W/m -0,3 C 2,1 C 8,0 km/h (2 Bft) 100,00 %
20.03.2016 08:10 2,2 C 2,1 C 2,2 C 84 % 0 cb 1021,7 hPa 0,0 l/m 3,2 km/h (1 Bft) N-NO 22 0 min 0,000 mm 33 W/m -0,2 C 2,2 C 9,7 km/h (2 Bft) 100,00 %
20.03.2016 08:20 2,2 C 2,2 C 2,2 C 84 % 0 cb 1021,6 hPa 0,0 l/m 4,8 km/h (1 Bft) N 360 0 min 0,000 mm 37 W/m -0,2 C 1,0 C 12,9 km/h (3 Bft) 100,00 %
20.03.2016 08:30 2,3 C 2,2 C 2,3 C 84 % 0 cb 1021,7 hPa 0,0 l/m 3,2 km/h (1 Bft) NO 45 0 min 0,000 mm 39 W/m -0,1 C 2,3 C 12,9 km/h (3 Bft) 100,00 %
20.03.2016 08:40 2,3 C 2,2 C 2,3 C 84 % 0 cb 1021,7 hPa 0,0 l/m 3,2 km/h (1 Bft) N-NO 22 0 min 0,000 mm 46 W/m -0,1 C 2,3 C 8,0 km/h (2 Bft) 100,00 %
20.03.2016 08:50 2,4 C 2,3 C 2,4 C 84 % 0 cb 1021,8 hPa 0,0 l/m 1,6 km/h (1 Bft) N-NO 22 0 min 0,000 mm 51 W/m -0,0 C 2,4 C 8,0 km/h (2 Bft) 100,00 %
20.03.2016 09:00 2,6 C 2,4 C 2,6 C 83 % 0 cb 1021,7 hPa 0,0 l/m 1,6 km/h (1 Bft) NO 45 0 min 0,025 mm 60 W/m 0,0 C 2,6 C 4,8 km/h (1 Bft) 100,00 %
20.03.2016 09:10 2,6 C 2,6 C 2,6 C 84 % 0 cb 1021,5 hPa 0,0 l/m 3,2 km/h (1 Bft) N 360 0 min 0,000 mm 69 W/m 0,2 C 2,6 C 8,0 km/h (2 Bft) 100,00 %
20.03.2016 09:20 2,7 C 2,6 C 2,7 C 84 % 0 cb 1021,6 hPa 0,0 l/m 3,2 km/h (1 Bft) N-NW 337 0 min 0,000 mm 76 W/m 0,3 C 2,7 C 11,3 km/h (2 Bft) 100,00 %
20.03.2016 09:30 2,8 C 2,7 C 2,8 C 83 % 0 cb 1021,8 hPa 0,0 l/m 4,8 km/h (1 Bft) N 360 0 min 0,000 mm 77 W/m 0,2 C 1,7 C 11,3 km/h (2 Bft) 100,00 %
20.03.2016 09:40 2,8 C 2,7 C 2,8 C 83 % 0 cb 1021,7 hPa 0,0 l/m 3,2 km/h (1 Bft) N-NW 337 0 min 0,000 mm 81 W/m 0,2 C 2,8 C 9,7 km/h (2 Bft) 100,00 %
20.03.2016 09:50 2,9 C 2,8 C 2,9 C 83 % 0 cb 1021,7 hPa 0,0 l/m 4,8 km/h (1 Bft) N 360 0 min 0,000 mm 88 W/m 0,3 C 1,8 C 11,3 km/h (2 Bft) 100,00 %
20.03.2016 10:00 3,0 C 2,9 C 3,0 C 83 % 0 cb 1021,6 hPa 0,0 l/m 1,6 km/h (1 Bft) N-NO 22 0 min 0,025 mm 91 W/m 0,4 C 3,0 C 8,0 km/h (2 Bft) 100,00 %
20.03.2016 10:10 3,2 C 3,0 C 3,2 C 82 % 0 cb 1021,6 hPa 0,0 l/m 3,2 km/h (1 Bft) N-NO 22 0 min 0,000 mm 105 W/m 0,4 C 3,2 C 11,3 km/h (2 Bft) 100,00 %
20.03.2016 10:20 3,2 C 3,2 C 3,2 C 83 % 0 cb 1021,7 hPa 0,0 l/m 4,8 km/h (1 Bft) N 360 0 min 0,000 mm 109 W/m 0,6 C 2,1 C 12,9 km/h (3 Bft) 100,00 %
20.03.2016 10:30 3,3 C 3,2 C 3,3 C 82 % 0 cb 1021,7 hPa 0,0 l/m 6,4 km/h (2 Bft) N 360 0 min 0,000 mm 109 W/m 0,5 C 1,6 C 12,9 km/h (3 Bft) 99,56 %
20.03.2016 10:40 3,4 C 3,3 C 3,4 C 82 % 0 cb 1021,6 hPa 0,0 l/m 4,8 km/h (1 Bft) N 360 0 min 0,000 mm 121 W/m 0,6 C 2,4 C 14,5 km/h (3 Bft) 100,00 %
20.03.2016 10:50 3,4 C 3,4 C 3,4 C 82 % 0 cb 1021,6 hPa 0,0 l/m 6,4 km/h (2 Bft) N-NO 22 0 min 0,000 mm 123 W/m 0,6 C 1,7 C 16,1 km/h (3 Bft) 100,00 %
20.03.2016 11:00 3,5 C 3,4 C 3,5 C 82 % 0 cb 1021,5 hPa 0,0 l/m 4,8 km/h (1 Bft) N-NO 22 0 min 0,051 mm 125 W/m 0,7 C 2,5 C 12,9 km/h (3 Bft) 100,00 %
20.03.2016 11:10 3,6 C 3,5 C 3,6 C 81 % 0 cb 1021,4 hPa 0,0 l/m 6,4 km/h (2 Bft) NO 45 0 min 0,000 mm 139 W/m 0,7 C 2,0 C 16,1 km/h (3 Bft) 100,00 %
20.03.2016 11:20 3,6 C 3,6 C 3,6 C 82 % 0 cb 1021,3 hPa 0,0 l/m 6,4 km/h (2 Bft) N 360 0 min 0,000 mm 134 W/m 0,8 C 2,0 C 16,1 km/h (3 Bft) 100,00 %
20.03.2016 11:30 3,7 C 3,6 C 3,7 C 82 % 0 cb 1021,2 hPa 0,0 l/m 4,8 km/h (1 Bft) O-NO 67 0 min 0,000 mm 125 W/m 0,9 C 2,7 C 11,3 km/h (2 Bft) 100,00 %
20.03.2016 11:40 3,8 C 3,7 C 3,8 C 81 % 0 cb 1021,2 hPa 0,0 l/m 4,8 km/h (1 Bft) NO 45 0 min 0,000 mm 120 W/m 0,8 C 2,8 C 9,7 km/h (2 Bft) 100,00 %
20.03.2016 11:50 3,7 C 3,7 C 3,8 C 82 % 0 cb 1021,3 hPa 0,0 l/m 4,8 km/h (1 Bft) N 360 0 min 0,000 mm 109 W/m 0,9 C 2,7 C 9,7 km/h (2 Bft) 100,00 %
20.03.2016 12:00 3,7 C 3,7 C 3,7 C 83 % 0 cb 1021,2 hPa 0,0 l/m 3,2 km/h (1 Bft) O-NO 67 0 min 0,051 mm 105 W/m 1,1 C 3,7 C 9,7 km/h (2 Bft) 100,00 %
20.03.2016 12:10 3,7 C 3,7 C 3,7 C 83 % 0 cb 1021,2 hPa 0,0 l/m 3,2 km/h (1 Bft) O-NO 67 0 min 0,000 mm 114 W/m 1,1 C 3,7 C 12,9 km/h (3 Bft) 100,00 %
20.03.2016 12:20 3,8 C 3,7 C 3,8 C 83 % 0 cb 1021,1 hPa 0,0 l/m 3,2 km/h (1 Bft) O-NO 67 0 min 0,000 mm 123 W/m 1,2 C 3,8 C 9,7 km/h (2 Bft) 100,00 %
20.03.2016 12:30 3,8 C 3,8 C 3,8 C 83 % 0 cb 1021,2 hPa 0,0 l/m 4,8 km/h (1 Bft) O-NO 67 0 min 0,000 mm 116 W/m 1,2 C 2,8 C 12,9 km/h (3 Bft) 100,00 %
20.03.2016 12:40 3,8 C 3,7 C 3,8 C 83 % 0 cb 1021,1 hPa 0,0 l/m 4,8 km/h (1 Bft) O-NO 67 0 min 0,000 mm 116 W/m 1,2 C 2,8 C 12,9 km/h (3 Bft) 99,56 %
20.03.2016 12:50 3,8 C 3,7 C 3,8 C 83 % 0 cb 1021,0 hPa 0,0 l/m 4,8 km/h (1 Bft) NO 45 0 min 0,000 mm 132 W/m 1,2 C 2,8 C 12,9 km/h (3 Bft) 99,56 %
20.03.2016 13:00 3,8 C 3,8 C 3,8 C 83 % 0 cb 1021,0 hPa 0,0 l/m 4,8 km/h (1 Bft) N-NW 337 0 min 0,051 mm 125 W/m 1,2 C 2,8 C 11,3 km/h (2 Bft) 100,00 %
20.03.2016 13:10 3,8 C 3,8 C 3,8 C 83 % 0 cb 1021,0 hPa 0,0 l/m 4,8 km/h (1 Bft) N-NW 337 0 min 0,000 mm 107 W/m 1,2 C 2,8 C 12,9 km/h (3 Bft) 100,00 %
20.03.2016 13:20 3,8 C 3,8 C 3,8 C 83 % 0 cb 1021,0 hPa 0,0 l/m 4,8 km/h (1 Bft) N-NW 337 0 min 0,000 mm 113 W/m 1,2 C 2,8 C 11,3 km/h (2 Bft) 100,00 %
20.03.2016 13:30 3,8 C 3,8 C 3,8 C 83 % 0 cb 1020,9 hPa 0,0 l/m 4,8 km/h (1 Bft) N 360 0 min 0,000 mm 125 W/m 1,2 C 2,8 C 12,9 km/h (3 Bft) 100,00 %
20.03.2016 13:40 3,8 C 3,8 C 3,8 C 83 % 0 cb 1020,8 hPa 0,0 l/m 4,8 km/h (1 Bft) N 360 0 min 0,000 mm 114 W/m 1,2 C 2,8 C 12,9 km/h (3 Bft) 100,00 %
20.03.2016 13:50 3,9 C 3,8 C 3,9 C 83 % 0 cb 1020,8 hPa 0,0 l/m 4,8 km/h (1 Bft) N-NO 22 0 min 0,000 mm 113 W/m 1,3 C 2,9 C 14,5 km/h (3 Bft) 100,00 %
20.03.2016 14:00 3,9 C 3,8 C 3,9 C 83 % 0 cb 1020,7 hPa 0,0 l/m 6,4 km/h (2 Bft) N 360 0 min 0,051 mm 114 W/m 1,3 C 2,3 C 14,5 km/h (3 Bft) 100,00 %
20.03.2016 14:10 3,9 C 3,9 C 3,9 C 82 % 0 cb 1020,7 hPa 0,0 l/m 4,8 km/h (1 Bft) N 360 0 min 0,000 mm 113 W/m 1,1 C 2,9 C 8,0 km/h (2 Bft) 100,00 %
20.03.2016 14:20 3,9 C 3,9 C 3,9 C 83 % 0 cb 1020,6 hPa 0,0 l/m 4,8 km/h (1 Bft) N-NW 337 0 min 0,000 mm 93 W/m 1,3 C 2,9 C 9,7 km/h (2 Bft) 100,00 %
20.03.2016 14:30 3,9 C 3,9 C 3,9 C 83 % 0 cb 1020,7 hPa 0,0 l/m 4,8 km/h (1 Bft) N 360 0 min 0,000 mm 90 W/m 1,3 C 2,9 C 11,3 km/h (2 Bft) 100,00 %
20.03.2016 14:40 3,8 C 3,8 C 3,9 C 84 % 0 cb 1020,7 hPa 0,0 l/m 4,8 km/h (1 Bft) N-NO 22 0 min 0,000 mm 81 W/m 1,4 C 2,8 C 12,9 km/h (3 Bft) 100,00 %
20.03.2016 14:50 3,8 C 3,8 C 3,8 C 84 % 0 cb 1020,6 hPa 0,0 l/m 4,8 km/h (1 Bft) N 360 0 min 0,000 mm 83 W/m 1,4 C 2,8 C 12,9 km/h (3 Bft) 100,00 %
20.03.2016 15:00 3,8 C 3,8 C 3,9 C 83 % 0 cb 1020,6 hPa 0,0 l/m 4,8 km/h (1 Bft) N 360 0 min 0,051 mm 74 W/m 1,2 C 2,8 C 12,9 km/h (3 Bft) 99,56 %
20.03.2016 15:10 3,9 C 3,9 C 3,9 C 83 % 0 cb 1020,5 hPa 0,0 l/m 4,8 km/h (1 Bft) N-NO 22 0 min 0,000 mm 77 W/m 1,3 C 2,9 C 11,3 km/h (2 Bft) 100,00 %
20.03.2016 15:20 3,9 C 3,9 C 4,0 C 83 % 0 cb 1020,4 hPa 0,0 l/m 6,4 km/h (2 Bft) N 360 0 min 0,000 mm 70 W/m 1,3 C 2,3 C 14,5 km/h (3 Bft) 100,00 %
20.03.2016 15:30 3,9 C 3,9 C 3,9 C 84 % 0 cb 1020,4 hPa 0,0 l/m 4,8 km/h (1 Bft) N 360 0 min 0,000 mm 70 W/m 1,4 C 2,9 C 14,5 km/h (3 Bft) 100,00 %
20.03.2016 15:40 3,9 C 3,9 C 3,9 C 84 % 0 cb 1020,4 hPa 0,0 l/m 4,8 km/h (1 Bft) N 360 0 min 0,000 mm 60 W/m 1,4 C 2,9 C 11,3 km/h (2 Bft) 100,00 %
20.03.2016 15:50 3,9 C 3,8 C 3,9 C 83 % 0 cb 1020,3 hPa 0,0 l/m 6,4 km/h (2 Bft) N 360 0 min 0,000 mm 62 W/m 1,3 C 2,3 C 12,9 km/h (3 Bft) 100,00 %
20.03.2016 16:00 3,8 C 3,8 C 3,9 C 84 % 0 cb 1020,2 hPa 0,0 l/m 6,4 km/h (2 Bft) N-NO 22 0 min 0,025 mm 54 W/m 1,4 C 2,2 C 17,7 km/h (3 Bft) 97,81 %
20.03.2016 16:10 3,9 C 3,8 C 3,9 C 83 % 0 cb 1020,0 hPa 0,0 l/m 4,8 km/h (1 Bft) N-NW 337 0 min 0,000 mm 53 W/m 1,3 C 2,9 C 14,5 km/h (3 Bft) 100,00 %
20.03.2016 16:20 3,8 C 3,8 C 3,9 C 84 % 0 cb 1020,1 hPa 0,0 l/m 8,0 km/h (2 Bft) N 360 0 min 0,000 mm 49 W/m 1,4 C 1,7 C 16,1 km/h (3 Bft) 100,00 %
20.03.2016 16:30 3,9 C 3,8 C 3,9 C 83 % 0 cb 1020,0 hPa 0,0 l/m 4,8 km/h (1 Bft) N 360 0 min 0,000 mm 49 W/m 1,3 C 2,9 C 11,3 km/h (2 Bft) 100,00 %
20.03.2016 16:40 3,9 C 3,9 C 3,9 C 83 % 0 cb 1020,1 hPa 0,0 l/m 4,8 km/h (1 Bft) N-NO 22 0 min 0,000 mm 44 W/m 1,3 C 2,9 C 11,3 km/h (2 Bft) 100,00 %
20.03.2016 16:50 4,1 C 3,9 C 4,1 C 83 % 0 cb 1020,1 hPa 0,0 l/m 1,6 km/h (1 Bft) N 360 0 min 0,000 mm 44 W/m 1,5 C 4,1 C 6,4 km/h (2 Bft) 100,00 %
20.03.2016 17:00 4,1 C 4,1 C 4,1 C 82 % 0 cb 1020,0 hPa 0,0 l/m 6,4 km/h (2 Bft) N 360 0 min 0,025 mm 44 W/m 1,3 C 2,6 C 16,1 km/h (3 Bft) 98,68 %
20.03.2016 17:10 4,2 C 4,1 C 4,2 C 82 % 0 cb 1020,1 hPa 0,0 l/m 3,2 km/h (1 Bft) N 360 0 min 0,000 mm 42 W/m 1,4 C 4,2 C 9,7 km/h (2 Bft) 100,00 %
20.03.2016 17:20 4,2 C 4,2 C 4,2 C 82 % 0 cb 1020,1 hPa 0,0 l/m 1,6 km/h (1 Bft) N 360 0 min 0,000 mm 35 W/m 1,4 C 4,2 C 6,4 km/h (2 Bft) 100,00 %
20.03.2016 17:30 4,2 C 4,2 C 4,3 C 81 % 0 cb 1020,1 hPa 0,0 l/m 3,2 km/h (1 Bft) N-NO 22 0 min 0,000 mm 26 W/m 1,2 C 4,2 C 9,7 km/h (2 Bft) 100,00 %
20.03.2016 17:40 4,2 C 4,2 C 4,3 C 80 % 0 cb 1020,0 hPa 0,0 l/m 4,8 km/h (1 Bft) N 360 0 min 0,000 mm 25 W/m 1,1 C 3,3 C 16,1 km/h (3 Bft) 100,00 %
20.03.2016 17:50 4,2 C 4,2 C 4,3 C 80 % 0 cb 1020,0 hPa 0,0 l/m 6,4 km/h (2 Bft) N 360 0 min 0,000 mm 19 W/m 1,1 C 2,7 C 14,5 km/h (3 Bft) 100,00 %
20.03.2016 18:00 4,2 C 4,2 C 4,2 C 79 % 0 cb 1020,1 hPa 0,0 l/m 6,4 km/h (2 Bft) N-NO 22 0 min 0,025 mm 19 W/m 0,9 C 2,7 C 14,5 km/h (3 Bft) 100,00 %
20.03.2016 18:10 4,3 C 4,2 C 4,3 C 79 % 0 cb 1020,2 hPa 0,0 l/m 3,2 km/h (1 Bft) N 360 0 min 0,000 mm 19 W/m 1,0 C 4,3 C 14,5 km/h (3 Bft) 100,00 %
20.03.2016 18:20 4,3 C 4,3 C 4,3 C 78 % 0 cb 1020,3 hPa 0,0 l/m 3,2 km/h (1 Bft) N-NW 337 0 min 0,000 mm 12 W/m 0,8 C 4,3 C 8,0 km/h (2 Bft) 100,00 %
20.03.2016 18:30 4,3 C 4,3 C 4,3 C 78 % 0 cb 1020,1 hPa 0,0 l/m 3,2 km/h (1 Bft) N-NO 22 0 min 0,000 mm 11 W/m 0,8 C 4,3 C 11,3 km/h (2 Bft) 100,00 %
20.03.2016 18:40 4,3 C 4,3 C 4,3 C 77 % 0 cb 1020,1 hPa 0,0 l/m 3,2 km/h (1 Bft) NO 45 0 min 0,000 mm 7 W/m 0,6 C 4,3 C 8,0 km/h (2 Bft) 100,00 %
20.03.2016 18:50 4,3 C 4,3 C 4,3 C 77 % 0 cb 1020,0 hPa 0,0 l/m 1,6 km/h (1 Bft) NO 45 0 min 0,000 mm 0 W/m 0,6 C 4,3 C 4,8 km/h (1 Bft) 100,00 %
20.03.2016 19:00 4,2 C 4,2 C 4,3 C 76 % 0 cb 1020,0 hPa 0,0 l/m 1,6 km/h (1 Bft) N 360 0 min 0,000 mm 0 W/m 0,4 C 4,2 C 6,4 km/h (2 Bft) 100,00 %
20.03.2016 19:10 4,2 C 4,2 C 4,2 C 76 % 0 cb 1020,1 hPa 0,0 l/m 1,6 km/h (1 Bft) N 360 0 min 0,000 mm 0 W/m 0,4 C 4,2 C 6,4 km/h (2 Bft) 100,00 %
20.03.2016 19:20 4,1 C 4,1 C 4,2 C 76 % 0 cb 1020,0 hPa 0,0 l/m 1,6 km/h (1 Bft) N 360 0 min 0,000 mm 0 W/m 0,3 C 4,1 C 4,8 km/h (1 Bft) 99,56 %
20.03.2016 19:30 4,1 C 4,1 C 4,1 C 76 % 0 cb 1020,1 hPa 0,0 l/m 1,6 km/h (1 Bft) N 360 0 min 0,000 mm 0 W/m 0,3 C 4,1 C 6,4 km/h (2 Bft) 100,00 %
20.03.2016 19:40 4,0 C 4,0 C 4,1 C 77 % 0 cb 1020,2 hPa 0,0 l/m 0,0 km/h (0 Bft) N 360 0 min 0,000 mm 0 W/m 0,3 C 4,0 C 3,2 km/h (1 Bft) 100,00 %
20.03.2016 19:50 4,0 C 3,9 C 4,0 C 77 % 0 cb 1020,3 hPa 0,0 l/m 0,0 km/h (0 Bft) N 360 0 min 0,000 mm 0 W/m 0,3 C 4,0 C 1,6 km/h (1 Bft) 100,00 %
20.03.2016 20:00 3,9 C 3,9 C 4,0 C 78 % 0 cb 1020,3 hPa 0,0 l/m 0,0 km/h (0 Bft) N 0 0 min 0,025 mm 0 W/m 0,4 C 3,9 C 0,0 km/h (0 Bft) 100,00 %
20.03.2016 20:10 3,8 C 3,8 C 3,9 C 78 % 0 cb 1020,4 hPa 0,0 l/m 0,0 km/h (0 Bft) N 0 0 min 0,000 mm 0 W/m 0,3 C 3,8 C 0,0 km/h (0 Bft) 100,00 %
20.03.2016 20:20 3,7 C 3,7 C 3,8 C 80 % 0 cb 1020,3 hPa 0,0 l/m 0,0 km/h (0 Bft) N 0 0 min 0,000 mm 0 W/m 0,6 C 3,7 C 0,0 km/h (0 Bft) 100,00 %
20.03.2016 20:30 3,6 C 3,5 C 3,7 C 81 % 0 cb 1020,4 hPa 0,0 l/m 0,0 km/h (0 Bft) N 0 0 min 0,000 mm 0 W/m 0,7 C 3,6 C 0,0 km/h (0 Bft) 100,00 %
20.03.2016 20:40 3,5 C 3,4 C 3,6 C 80 % 0 cb 1020,4 hPa 0,0 l/m 0,0 km/h (0 Bft) N 0 0 min 0,000 mm 0 W/m 0,4 C 3,5 C 0,0 km/h (0 Bft) 100,00 %
20.03.2016 20:50 3,4 C 3,4 C 3,5 C 80 % 0 cb 1020,5 hPa 0,0 l/m 0,0 km/h (0 Bft) N 0 0 min 0,000 mm 0 W/m 0,3 C 3,4 C 0,0 km/h (0 Bft) 100,00 %
20.03.2016 21:00 3,4 C 3,4 C 3,4 C 80 % 0 cb 1020,6 hPa 0,0 l/m 0,0 km/h (0 Bft) N 0 0 min 0,000 mm 0 W/m 0,3 C 3,4 C 0,0 km/h (0 Bft) 100,00 %
20.03.2016 21:10 3,4 C 3,4 C 3,4 C 81 % 0 cb 1020,7 hPa 0,0 l/m 0,0 km/h (0 Bft) N 0 0 min 0,000 mm 0 W/m 0,5 C 3,4 C 0,0 km/h (0 Bft) 100,00 %
20.03.2016 21:20 3,4 C 3,4 C 3,4 C 81 % 0 cb 1020,6 hPa 0,0 l/m 0,0 km/h (0 Bft) N 0 0 min 0,000 mm 0 W/m 0,5 C 3,4 C 0,0 km/h (0 Bft) 100,00 %
20.03.2016 21:30 3,4 C 3,4 C 3,4 C 82 % 0 cb 1020,6 hPa 0,0 l/m 0,0 km/h (0 Bft) N 0 0 min 0,000 mm 0 W/m 0,6 C 3,4 C 0,0 km/h (0 Bft) 100,00 %
20.03.2016 21:40 3,4 C 3,4 C 3,4 C 82 % 0 cb 1020,5 hPa 0,0 l/m 0,0 km/h (0 Bft) N 0 0 min 0,000 mm 0 W/m 0,6 C 3,4 C 0,0 km/h (0 Bft) 100,00 %
20.03.2016 21:50 3,4 C 3,4 C 3,4 C 83 % 0 cb 1020,5 hPa 0,0 l/m 0,0 km/h (0 Bft) N 0 0 min 0,000 mm 0 W/m 0,8 C 3,4 C 0,0 km/h (0 Bft) 100,00 %
20.03.2016 22:00 3,4 C 3,4 C 3,4 C 82 % 0 cb 1020,6 hPa 0,0 l/m 0,0 km/h (0 Bft) N 0 0 min 0,000 mm 0 W/m 0,6 C 3,4 C 0,0 km/h (0 Bft) 100,00 %
20.03.2016 22:10 3,4 C 3,4 C 3,4 C 83 % 0 cb 1020,6 hPa 0,0 l/m 0,0 km/h (0 Bft) N 0 0 min 0,000 mm 0 W/m 0,8 C 3,4 C 0,0 km/h (0 Bft) 100,00 %
20.03.2016 22:20 3,4 C 3,4 C 3,4 C 82 % 0 cb 1020,6 hPa 0,0 l/m 0,0 km/h (0 Bft) N 0 0 min 0,000 mm 0 W/m 0,6 C 3,4 C 0,0 km/h (0 Bft) 100,00 %
20.03.2016 22:30 3,5 C 3,4 C 3,5 C 83 % 0 cb 1020,6 hPa 0,0 l/m 0,0 km/h (0 Bft) N 0 0 min 0,000 mm 0 W/m 0,9 C 3,5 C 0,0 km/h (0 Bft) 100,00 %
20.03.2016 22:40 3,4 C 3,4 C 3,5 C 84 % 0 cb 1020,6 hPa 0,0 l/m 0,0 km/h (0 Bft) N 0 0 min 0,000 mm 0 W/m 1,0 C 3,4 C 0,0 km/h (0 Bft) 100,00 %
20.03.2016 22:50 3,4 C 3,4 C 3,4 C 84 % 0 cb 1020,7 hPa 0,0 l/m 0,0 km/h (0 Bft) N 0 0 min 0,000 mm 0 W/m 1,0 C 3,4 C 0,0 km/h (0 Bft) 100,00 %
20.03.2016 23:00 3,3 C 3,3 C 3,4 C 85 % 0 cb 1020,7 hPa 0,0 l/m 0,0 km/h (0 Bft) N 0 0 min 0,000 mm 0 W/m 1,0 C 3,3 C 0,0 km/h (0 Bft) 100,00 %
20.03.2016 23:10 3,2 C 3,2 C 3,3 C 84 % 0 cb 1020,6 hPa 0,0 l/m 0,0 km/h (0 Bft) N 0 0 min 0,000 mm 0 W/m 0,8 C 3,2 C 0,0 km/h (0 Bft) 100,00 %
20.03.2016 23:20 3,2 C 3,2 C 3,2 C 85 % 0 cb 1020,6 hPa 0,0 l/m 0,0 km/h (0 Bft) N 0 0 min 0,000 mm 0 W/m 0,9 C 3,2 C 0,0 km/h (0 Bft) 98,25 %
20.03.2016 23:30 3,1 C 3,1 C 3,2 C 85 % 0 cb 1020,6 hPa 0,0 l/m 0,0 km/h (0 Bft) N 0 0 min 0,000 mm 0 W/m 0,8 C 3,1 C 0,0 km/h (0 Bft) 100,00 %
20.03.2016 23:40 3,1 C 3,1 C 3,1 C 85 % 0 cb 1020,7 hPa 0,0 l/m 0,0 km/h (0 Bft) N 0 0 min 0,000 mm 0 W/m 0,8 C 3,1 C 0,0 km/h (0 Bft) 100,00 %
20.03.2016 23:50 3,1 C 3,1 C 3,1 C 85 % 0 cb 1020,7 hPa 0,0 l/m 0,0 km/h (0 Bft) N 0 0 min 0,000 mm 0 W/m 0,8 C 3,1 C 0,0 km/h (0 Bft) 100,00 %
_ Min-Zeit 06:40 06:40 06:40 19:00 00:00 16:10 - 06:10 - - - - - 06:40 05:50 20:00 00:10
Minimum _ 1,9 C 1,9 C 2,0 C 76 % 0 cb 1020,0 hPa - 0,0 km/h (0 Bft) - - - - - -0,8 C 0,9 C 0,0 km/h (0 Bft) 82,46 %
_ Max-Zeit 17:30 18:20 17:30 23:00 00:00 00:00 00:00 16:20 - - 00:00 11:00 11:10 16:50 18:10 00:40 00:00
Maximum _ 4,3 C 4,3 C 4,3 C 85 % 0 cb 1022,4 hPa 0,0 l/m 8,0 km/h
N (2 Bft)
- - 0 min 0,051 mm 139 W/m 1,5 C 4,3 C 17,7 km/h
N-NW (3 Bft)
100,00 %
Durchschnitt _ 3,3 C 3,3 C 3,3 C 82 % 0 cb 1021,1 hPa #0,0 l/m 3,2 km/h (1 Bft) N - #0 min. #0,530 mm 72 W/m 0,5 C 2,8 C 8,9 km/h (2 Bft) 99,80 %
Wetterstation Gdesweiler